Left ArrowRight Arrow

35.59393, -105.2239

Hourly Observations for May 28, 2024

Temp ( °F °C ) Dew Point ( °F °C ) Humidity (%) Winds ( mph kmh ) Pressure ( in mb ) Visibility ( mi km ) Precip ( " mm )
12:53 am 00:53 Clear 52 11.1 27 -2.8 38 38 N 7 11 29.98 1015 10 16 0.00 0.00
1:53 am 01:53 Clear 51 10.6 27 -2.8 39 39 N 6 9 29.98 1015 10 16 0.00 0.00
2:53 am 02:53 Clear 51 10.6 27 -2.8 39 39 N 8 13 29.96 1015 10 16 0.00 0.00
3:53 am 03:53 Clear 45 7.2 28 -2.2 51 51 ENE 6 9 29.99 1016 10 16 0.00 0.00
4:53 am 04:53 Clear 47 8.3 27 -2.8 45 45 NE 8 13 29.98 1015 10 16 0.00 0.00
5:53 am 05:53 Sunny 46 7.8 28 -2.2 49 49 NNE 9 15 29.99 1016 10 16 0.00 0.00
6:53 am 06:53 Sunny 51 10.6 30 -1.1 44 44 NE 7 11 29.98 1015 10 16 0.00 0.00
7:53 am 07:53 Sunny 57 13.9 34 1.1 42 42 NNE 8 13 29.99 1016 10 16 0.00 0.00
8:53 am 08:53 Sunny 64 17.8 35 1.7 34 34 NE 9 15 29.98 1015 10 16 0.00 0.00
9:53 am 09:53 Sunny 69 20.6 35 1.7 28 28 NE 9 15 29.97 1015 10 16 0.00 0.00
10:53 am 10:53 Sunny 73 22.8 34 1.1 24 24 NNE 8 13 29.96 1015 10 16 0.00 0.00
11:53 am 11:53 Sunny 78 25.6 32 0 19 19 ENE 7 11 29.94 1014 10 16 0.00 0.00
12:53 pm 12:53 Mostly Sunny 76 24.4 27 -2.8 16 16 SSE 13 20 29.94 1014 10 16 0.00 0.00
1:53 pm 13:53 Sunny 79 26.1 25 -3.9 14 14 VRB 6 9 29.92 1013 10 16 0.00 0.00
2:53 pm 14:53 Sunny 80 26.7 28 -2.2 15 15 SE 12 19 29.89 1012 10 16 0.00 0.00
3:53 pm 15:53 Mostly Sunny 78 25.6 28 -2.2 16 16 S 14 22 29.91 1013 10 16 0.00 0.00
4:53 pm 16:53 Sunny 79 26.1 25 -3.9 14 14 VRB 7 11 29.88 1012 10 16 0.00 0.00
5:53 pm 17:53 Sunny 79 26.1 27 -2.8 15 15 N 9 15 29.86 1011 10 16 0.00 0.00
6:53 pm 18:53 Sunny 76 24.4 29 -1.7 18 18 NE 8 13 29.87 1012 10 16 0.00 0.00
7:53 pm 19:53 Sunny 64 17.8 38 3.3 38 38 E 23 37 29.93 1014 10 16 0.00 0.00
8:53 pm 20:53 Clear 57 13.9 40 4.4 53 53 NE 9 15 30.00 1016 10 16 0.00 0.00
9:53 pm 21:53 Clear 53 11.7 40 4.4 61 61 NNE 7 11 30.04 1017 10 16 0.00 0.00
10:53 pm 22:53 Mostly Clear 51 10.6 41 5 68 68 NNE 5 7 30.05 1018 10 16 0.00 0.00
11:53 pm 23:53 Cloudy 53 11.7 43 6.1 68 68 ENE 7 11 30.03 1017 10 16 0.00 0.00

Powered by Vaisala Xweather